Regional Weather Roundup
Issued by NWS

Home | Current Version | Previous Version | Graphics & Text | Print | Product List | Glossary On
Versions: 1 2 3 4 5 6 7 8 9 10 11 12 13 14 15 16 17 18 19 20 21 22 23 24 25 26 27 28 29 30 31 32 33 34 35 36 37 38 39 40 41 42 43 44 45 46 47 48 49 50
777
ASUS43 KMKX 012200
RWRWI

WISCONSIN REGIONAL WEATHER ROUNDUP
NATIONAL WEATHER SERVICE MILWAUKEE/SULLIVAN WI
500 PM CDT SUN MAY 01 2016

NOTE: "FAIR" INDICATES FEW OR NO CLOUDS BELOW 12,000 FEET WITH NO
SIGNIFICANT WEATHER AND/OR OBSTRUCTIONS TO VISIBILITY.

WIZ001-002-006>008-014>016-023>028-012300-
NORTHWEST WISCONSIN

CITY           SKY/WX    TMP DP  RH WIND       PRES   REMARKS
SUPERIOR ARPT  SUNNY     47  36  66 NE12      30.20S
ASHLAND        SUNNY     51  36  56 NE14      30.18F
HAYWARD        SUNNY     59  34  39 NE15      30.12S
SIREN          SUNNY     61  26  26 NE10G20   30.11S
CUMBERLAND     SUNNY     59  34  38 N6        30.09F
RICE LAKE      CLOUDY    61  33  35 N14       30.09S
CHETEK         PTSUNNY   61  32  33 NE6       30.07F
LADYSMITH      MOSUNNY   60  32  34 N7        30.08S
EAU CLAIRE     NOT AVBL
MENOMONIE      PTSUNNY   65  32  29 E7        30.07S
NEW RICHMOND   MOSUNNY   59  32  35 NE13      30.10S
OSCEOLA        SUNNY     62  32  31 NE7       30.12F
$$

WIZ003>005-009-010-017-018-012300-
NORTH CENTRAL WISCONSIN

CITY           SKY/WX    TMP DP  RH WIND       PRES   REMARKS
MANITOWISH WTR PTSUNNY   57  31  38 NE5       30.09F
ARBOR VITAE    CLOUDY    59  29  31 NE3       30.08F
WOODRUFF       CLOUDY    59  29  31 NE3       30.08F
RHINELANDER    CLOUDY    60  28  29 E10       30.08S
EAGLE RIVER    CLOUDY    58  26  28 E9        30.08S
LAND O LAKES   CLOUDY    58  30  33 NE7       30.10S
PHILLIPS       CLOUDY    59  31  34 NE6       30.07S
TOMAHAWK       CLOUDY    60  28  29 NE7       30.07S
MEDFORD        CLOUDY    59  31  33 E10       30.05S
MERRILL        CLOUDY    61  30  31 E7        30.06S
$$

WIZ029-030-035-036-043>047-012300-
CENTRAL WISCONSIN

CITY           SKY/WX    TMP DP  RH WIND       PRES   REMARKS
WAUSAU         PTSUNNY   63  32  31 E10       30.04R
MOSINEE        PTSUNNY   61  34  36 SE10      30.06S
MARSHFIELD     CLOUDY    60  31  33 SE9       30.05S
STEVENS POINT  MOSUNNY   58  32  37 E17G23    30.06S
WAUPACA        CLOUDY    59  35  40 NE8G16    30.08R
WAUTOMA        CLOUDY    57  36  45 E10       30.06R
WISC RAPIDS    MOSUNNY   60  29  30 E14G21    30.06S
CAMP DOUGLAS   NOT AVBL
$$

WIZ011>013-019>022-031-037>040-048>050-012300-
NORTHEAST WISCONSIN

CITY           SKY/WX    TMP DP  RH WIND       PRES   REMARKS
ANTIGO         CLOUDY    56  33  42 E12       30.07S
SHAWANO        SUNNY     60  36  40 E13G21    30.08F
OCONTO         SUNNY     56  36  48 NE12      30.10S
STURGEON BAY   SUNNY     54  37  54 NE10G20   30.12S
GREEN BAY      SUNNY     56  39  53 NE23      30.08S
MANITOWOC      NOT AVBL
APPLETON       PTSUNNY   55  34  44 NE17G29   30.05S
CLINTONVILLE   SUNNY     57  34  41 E12       30.07F
OSHKOSH        MOSUNNY   56  38  50 NE15G25   30.05R
$$

WIZ032>034-041-042-053>061-012300-
SOUTHWEST WISCONSIN

CITY           SKY/WX    TMP DP  RH WIND       PRES   REMARKS
LA CROSSE      CLOUDY    58  37  45 E8        30.05S
SPARTA         CLOUDY    58  36  43 NE8       30.06S
VIROQUA        CLOUDY    53  42  66 NE8       30.05S
BOSCOBEL       LGT RAIN  52  46  80 CALM      30.05R
PRAIRIE DU CHI RAIN      50  43  77 N3        30.05S
PLATTEVILLE    CLOUDY    53  46  79 NE7       30.01F
$$

WIZ056-057-062-063-064-067-068-012300-
SOUTH CENTRAL WISCONSIN

CITY           SKY/WX    TMP DP  RH WIND       PRES   REMARKS
REEDSBURG      CLOUDY    55  38  52 E10G20    30.03F
BARABOO/DELLS  CLOUDY    55  37  50 E9        30.04S
LONE ROCK      NOT AVBL
MINERAL POINT  CLOUDY    54  45  71 N8        30.02S
MADISON        CLOUDY    55  40  56 NE13G22   30.01F
MIDDLETON      CLOUDY    56  43  61 NE12      30.02S
WATERTOWN      CLOUDY    54  42  63 E12       30.03S
MONROE         CLOUDY    54  45  71 NE9       29.99F
JANESVILLE     CLOUDY    57  43  58 NE13G18   29.99F
$$

WIZ051-052-058>065-066-070>072-012300-
SOUTHEAST WISCONSIN

CITY           SKY/WX    TMP DP  RH WIND       PRES   REMARKS
MILWAUKEE      DRIZZLE   45  40  82 N15       30.04F
WAUKESHA       PTSUNNY   48  39  71 NE12G23   30.05R
MILWAUKEE/TIMM CLOUDY    48  37  66 NE12      30.06R
RACINE         CLOUDY    45  41  86 N12G20    30.05S
BURLINGTON     CLOUDY    47  42  84 NE12      30.02F
KENOSHA        CLOUDY    47  42  83 N10       30.02F
FOND DU LAC    PTSUNNY   55  39  54 E18       30.06R
SHEBOYGAN      CLOUDY    48  39  71 NE15      30.07R
WEST BEND      CLOUDY    50  39  66 NE10G17   30.05R
JUNEAU         CLOUDY    55  41  59 NE15      30.04S
$$

LSZ147-162-012300-
LAKE SUPERIOR

STATION/POSITION TIME  TEMP    WIND        PRES    WAVE
                       AIR SEA DIR/SP/G            HT/PER
                 (UTC) (F)     (DEG/KT/KT) (MB)    (FT/S)
W MID LAKE BUOY  2050   39 37   40/  6/  8 1023.3F   3/ 5
DEVILS ISLAND    2100   38      40/  7/  8 1023.6F
SAXON HARBOR     2100   40      10/  6/  7 1022.0F
$$

LMZ867-665-643>646-012300-
LAKE MICHIGAN

STATION/POSITION TIME  TEMP    WIND        PRES    WAVE
                       AIR SEA DIR/SP/G            HT/PER
                 (UTC) (F)     (DEG/KT/KT) (MB)    (FT/S)
CHAMBERS ISLAND  2100   51      30/ 10/ 12 1019.6F
N MID LAKE BUOY  2050   42 39   10/  6/  8 1019.7F   1
NORTHPORT PIER   2100   47      90/  2/  5 1019.6F
KEWAUNEE LAKESHO 2100   47      30/ 11/ 15 1018.1S
SHEBOYGAN LAKESH 2100   43      20/ 18/ 20 1018.5R
PORT WASHINGTON  2100   48      30/ 11/ 15 1018.3
S MID LAKE BUOY  2050   42 40   20/ 10/ 10 1016.4R   2/ 5
KENOSHA   LAKESH 2100   44      10/ 15/ 18 1017.3R
$$

TC  - TEMPERATURE IN CELSIUS
VSB - VISIBILITY IN STATUTE MILES
WCI - WIND CHILL INDEX
HX  - HEAT INDEX





USA.gov is the U.S. government's official web portal to all federal, state and local government web resources and services.